Home   Weather   Tallinn   Past weeks
Flag for Estonia

Past Weather in Tallinn, Estonia — Yesterday and Last 2 Weeks

Now
43 °F

Mostly cloudy.


Feels Like: 36 °F
Forecast: 49 / 47 °F
Wind: 13 mph from Southeast

Location: Tallinn

Current Time: Oct 16, 2019 at 6:18:20 am

Latest Report: Oct 16, 2019 at 5:50 am


Visibility: N/A

Pressure: 29.95 "Hg

Humidity: 87%

Dew Point: 39 °F

Location of TallinnLocation

Past Weather in Tallinn — Graph

°F

Tallinn Temperature Yesterday

Maximum temperature yesterday: 45 °F (at 11:50 am)
Minimum temperature yesterday: 32 °F (at 8:20 am)
Average temperature yesterday: 41 °F

High & Low Weather Summary for the Past Weeks

 TemperatureHumidityPressure
High54 °F (Oct 11, 1:50 pm)100% (Oct 1, 11:20 pm)30.21 "Hg (Oct 1, 11:20 pm)
Low32 °F (Oct 15, 8:20 am)57% (Oct 5, 10:50 pm)29.03 "Hg (Oct 1, 4:20 am)
Average43 °F89%29.69 "Hg
* Reported Oct 1 4:20 am — Oct 16 4:50 am, Tallinn. Weather by CustomWeather, © 2019

Note: Actual official high and low records may vary slightly from our data, if they occured in-between our weather recording intervals... More about our weather records

Advertising

Tallinn Weather History for the Previous 24 Hours

Scroll right to see more
 ConditionsComfort  
Time TempWeatherWind HumidityBarometerVisibility
4:50 am
Wed, Oct 16
43 °FMostly cloudy.13 mph87%29.98 "HgN/A
4:20 am43 °FPassing clouds.14 mph87%29.98 "HgN/A
3:50 am43 °FPassing clouds.14 mph87%29.98 "HgN/A
3:20 am43 °FPassing clouds.13 mph87%30.01 "HgN/A
2:50 am43 °FOvercast.13 mph87%30.01 "HgN/A
2:20 am43 °FMostly cloudy.14 mph81%30.01 "HgN/A
1:50 am43 °FOvercast.13 mph81%30.04 "HgN/A
1:20 am43 °FPassing clouds.13 mph81%30.07 "HgN/A
12:50 am43 °FPassing clouds.15 mph81%30.07 "HgN/A
12:20 am43 °FClear.14 mph81%30.07 "Hg10 mi
11:50 pm
Tue, Oct 15
43 °FClear.13 mph81%30.07 "Hg10 mi
11:20 pm43 °FClear.14 mph81%30.09 "Hg10 mi
10:50 pm43 °FClear.12 mph81%30.09 "Hg10 mi
10:20 pm43 °FClear.13 mph81%30.09 "Hg10 mi
9:50 pm43 °FClear.12 mph81%30.09 "Hg10 mi
9:20 pm43 °FClear.12 mph81%30.12 "Hg10 mi
8:50 pm43 °FClear.13 mph81%30.12 "Hg10 mi
8:20 pm43 °FClear.15 mph81%30.12 "Hg10 mi
7:50 pm43 °FClear.13 mph87%30.12 "Hg10 mi
7:20 pm43 °FClear.13 mph87%30.12 "Hg10 mi
6:50 pm45 °FClear.13 mph81%30.15 "Hg10 mi
6:20 pm45 °FClear.10 mph81%30.15 "Hg10 mi
5:50 pm45 °FSunny.9 mph81%30.15 "Hg10 mi
5:20 pm45 °FSunny.10 mph81%30.15 "Hg10 mi
4:50 pm45 °FSunny.10 mph81%30.15 "Hg10 mi
4:20 pm45 °FSunny.8 mph81%30.15 "Hg10 mi
3:50 pm45 °FSunny.8 mph81%30.18 "Hg10 mi
3:20 pm45 °FSunny.9 mph76%30.15 "Hg10 mi
2:50 pm45 °FSunny.9 mph76%30.18 "Hg10 mi
2:20 pm45 °FSunny.9 mph81%30.18 "Hg10 mi
1:50 pm45 °FSunny.10 mph76%30.18 "Hg10 mi
1:20 pm45 °FSunny.9 mph76%30.18 "Hg10 mi
12:50 pm45 °FPassing clouds.9 mph71%30.21 "HgN/A
12:20 pm43 °FPassing clouds.8 mph81%30.18 "HgN/A
11:50 am45 °FPassing clouds.8 mph71%30.21 "HgN/A
11:20 am43 °FPassing clouds.6 mph81%30.21 "HgN/A
10:50 am41 °FPassing clouds.7 mph87%30.18 "HgN/A
10:20 am39 °FPassing clouds.5 mph93%30.18 "HgN/A
9:50 am39 °FScattered clouds.2 mph100%30.18 "HgN/A
9:20 am34 °FLight fog.5 mph93%30.15 "HgN/A
8:50 am32 °FLight fog.2 mph100%30.15 "HgN/A
8:20 am32 °FFog.2 mph93%30.15 "HgN/A
7:50 am34 °FFog.No wind100%30.15 "HgN/A
7:20 am34 °FPassing clouds.2 mph100%30.12 "HgN/A
6:50 am36 °FPassing clouds.3 mph93%30.12 "HgN/A
6:20 am36 °FPassing clouds.No wind93%30.12 "HgN/A
Weather by CustomWeather, © 2019

See weather overview